Volver al catálogo

THORAD AGENA D DEB

ActivoPO
NORAD 5203·DEBRIS·🇺🇸 United States

Lanzado Apr 8, 1970 desde Vandenberg Space Force Base

Loading…

Próximos Pases (próximas 24 horas)

TLE

ActualizadoSource: Space-Track

Época: Sep 14, 2026, 20:06 UTC

1 05203U 70025KE  26257.83781089  .00000373  00000-0  94200-3 0  9991
2 05203  99.8257 284.9574 0219788 229.7047 305.7856 13.17710907694815

Sigue THORAD AGENA D DEB en tiempo real con AllMySat

Download on the App Store